Location: D�rnast
(49.6426°N, 11.9755°E)
Time: 12:55:33
(UTC+00:00)

Cosmos 1825 Rocket - Pass Details

Date: 24 January 2021
Orbit: 604 x 630 km, 82.5° (Epoch: 26 February)

Event Time Altitude Azimuth Distance (km) Brightness Sun altitude
Rises 18:13:26 0° 181° (S) 2,868 7.0 -22.2°
Reaches altitude 10° 18:15:38 10° 179° (S) 1,972 6.1 -22.6°
Enters shadow 18:18:33 41° 165° (SSE) 906 4.2 -23.1°
